DLH145N EDDS-EBOS

Flight info

Callsign DLH145N
Flight time N/A
Altitude 36000
Route VESID4B/25 VESID DCT LIRSU DCT DENUT
Aircraft A320/M-SDE3FGHIRWY/LB1

Departure

Time 2026-05-06 16:58
Airport Stuttgart Airport (EDDS)

Arrival

Time N/A
Airport Ostend-Bruges International Airport (EBOS)
Time Latitude Longitude Altitude Speed Heading
2026-05-06 16:09 48.68910 9.19514 1291 ft 0 kts 344°
2026-05-06 16:44 48.68901 9.19518 1291 ft 4 kts 345°
2026-05-06 16:44 48.68875 9.19527 1291 ft 4 kts 353°
2026-05-06 16:45 48.68849 9.19527 1289 ft 4 kts 17°
2026-05-06 16:45 48.68831 9.19510 1289 ft 2 kts 73°
2026-05-06 16:45 48.68831 9.19508 1289 ft 0 kts 74°
2026-05-06 16:48 48.68835 9.19527 1288 ft 5 kts 74°
2026-05-06 16:48 48.68850 9.19609 1290 ft 11 kts 74°
2026-05-06 16:48 48.68873 9.19730 1285 ft 11 kts 74°
2026-05-06 16:48 48.68872 9.19836 1288 ft 9 kts 121°
2026-05-06 16:49 48.68832 9.19901 1288 ft 8 kts 121°
2026-05-06 16:49 48.68827 9.19973 1285 ft 8 kts 79°
2026-05-06 16:49 48.68849 9.20063 1289 ft 11 kts 70°
2026-05-06 16:49 48.68870 9.20187 1285 ft 14 kts 78°
2026-05-06 16:50 48.68899 9.20352 1286 ft 18 kts 74°
2026-05-06 16:50 48.68936 9.20559 1286 ft 22 kts 75°
2026-05-06 16:50 48.68982 9.20787 1288 ft 23 kts 73°
2026-05-06 16:50 48.69028 9.21035 1285 ft 26 kts 75°
2026-05-06 16:51 48.69075 9.21305 1285 ft 27 kts 75°
2026-05-06 16:51 48.69133 9.21583 1286 ft 28 kts 71°
2026-05-06 16:51 48.69187 9.21871 1285 ft 29 kts 76°
2026-05-06 16:51 48.69243 9.22160 1287 ft 29 kts 75°
2026-05-06 16:52 48.69299 9.22459 1287 ft 30 kts 73°
2026-05-06 16:52 48.69356 9.22761 1288 ft 30 kts 74°
2026-05-06 16:52 48.69415 9.23073 1287 ft 32 kts 73°
2026-05-06 16:52 48.69475 9.23395 1285 ft 31 kts 75°
2026-05-06 16:53 48.69533 9.23712 1286 ft 31 kts 74°
2026-05-06 16:53 48.69591 9.24008 1286 ft 30 kts 72°
2026-05-06 16:53 48.69567 9.24266 1287 ft 21 kts 136°
2026-05-06 16:53 48.69494 9.24319 1285 ft 0 kts 164°
2026-05-06 16:55 48.69487 9.24322 1287 ft 4 kts 165°
2026-05-06 16:56 48.69428 9.24319 1285 ft 12 kts 197°
2026-05-06 16:56 48.69374 9.24222 1285 ft 13 kts 250°
2026-05-06 16:56 48.69358 9.24133 1288 ft 0 kts 253°
2026-05-06 16:57 48.69358 9.24132 1288 ft 0 kts 253°
2026-05-06 16:57 48.69343 9.24057 1287 ft 30 kts 253°
2026-05-06 16:57 48.69213 9.23380 1288 ft 101 kts 254°
2026-05-06 16:57 48.68963 9.22088 1287 ft 153 kts 253°
2026-05-06 16:58 48.68660 9.20442 1775 ft 161 kts 255°
2026-05-06 16:58 48.68364 9.18756 2495 ft 171 kts 254°
2026-05-06 16:58 48.68056 9.16989 3157 ft 176 kts 255°
2026-05-06 16:58 48.67740 9.15170 3860 ft 180 kts 254°
2026-05-06 16:59 48.67371 9.13257 4296 ft 202 kts 252°
2026-05-06 16:59 48.67041 9.11072 4810 ft 225 kts 270°
2026-05-06 16:59 48.67504 9.08756 4975 ft 237 kts 298°
2026-05-06 16:59 48.68564 9.06831 5001 ft 243 kts 323°
2026-05-06 17:00 48.70175 9.05861 5008 ft 262 kts 344°
2026-05-06 17:00 48.71968 9.05172 5006 ft 268 kts 341°
2026-05-06 17:00 48.73750 9.04349 5008 ft 267 kts 339°
2026-05-06 17:00 48.75513 9.03468 5008 ft 267 kts 339°
2026-05-06 17:01 48.77274 9.02562 5009 ft 268 kts 338°
2026-05-06 17:01 48.79021 9.01653 5076 ft 272 kts 338°
2026-05-06 17:01 48.80826 9.00642 6022 ft 271 kts 337°